Welcome to the New NWS' Forecast!
Most changes are behind the scenes, but click here for differences you might notice.

Regional Weather Roundup (RWR)

Issued by Gray - Portland, ME (GYX)

                            
065 
ASUS41 KGYX 180605
RWRGYX
WEATHER ROUNDUP FOR MAINE AND NEW HAMPSHIRE
NATIONAL WEATHER SERVICE GRAY ME
200 AM EDT SAT AUG 18 2018

MEZ002-005-006-010-012-015-018-020-021-024-026-027-029-180700-
MAINE
  
CITY           SKY/WX    TMP DP  RH WIND       PRES   REMARKS
PORTLAND       FAIR      72  72 100 S7        29.83F FOG              
6HR MIN TEMP:  69; 6HR MAX TEMP:  72; 6HR PCP:  0.36;                

SANFORD        FAIR      69  69 100 VRB3      29.83F FOG              
BAR HARBOR     FOG       68  68 100 S8        29.86F VSB 3/4          
WISCASSET      LGT RAIN  69  69 100 S3        29.84F FOG              
6HR MIN TEMP:  69; 6HR MAX TEMP:  70; 6HR PCP:  0.08;                

ROCKLAND       MOCLDY    69  69 100 SW5       29.84F FOG              
FRYEBURG       FAIR      69  68  96 NW3       29.82F                  
6HR MIN TEMP:  67; 6HR MAX TEMP:  71; 6HR PCP:  0.46;                

AUGUSTA        LGT RAIN  69  69 100 S6        29.82F FOG              
6HR MIN TEMP:  68; 6HR MAX TEMP:  69; 6HR PCP:  0.45;                

WATERVILLE     LGT RAIN  68  67  96 CALM      29.79F FOG              
BANGOR         CLOUDY    69  67  93 S7        29.84F                  
6HR MIN TEMP:  67; 6HR MAX TEMP:  69; 6HR PCP:  0.03;                

GREENVILLE       N/A     61  61 100 VRB6      29.82F                  
6HR MIN TEMP:  60; 6HR MAX TEMP:  64; 6HR PCP:  0.50;                

MILLINOCKET    RAIN      63  61  93 SE3       29.85F FOG              
6HR MIN TEMP:  62; 6HR MAX TEMP:  68; 6HR PCP:  0.24;                

HOULTON        RAIN      61  61 100 SE6       29.86F FOG              
6HR MIN TEMP:  61; 6HR MAX TEMP:  67; 6HR PCP:  0.62;                

PRESQUE ISLE   LGT RAIN  62  61  96 E6        29.89F FOG              
6HR MIN TEMP:  62; 6HR MAX TEMP:  68; 6HR PCP:  0.37;                

FRENCHVILLE    LGT RAIN  61  56  83 N9        29.90F                  
6HR MIN TEMP:  61; 6HR MAX TEMP:  70; 6HR PCP:  0.14;                

CARIBOU        LGT RAIN  64  61  90 NE5       29.88F FOG              
6HR MIN TEMP:  64; 6HR MAX TEMP:  70; 6HR PCP:  0.25;                

$$

NHZ002-005-008-009-011-012-014-180700-
NEW HAMPSHIRE
  
CITY           SKY/WX    TMP DP  RH WIND       PRES   REMARKS
PORTSMOUTH     LGT RAIN  73  71  94 SW5       29.82F FOG              
ROCHESTER      CLOUDY    70  70 100 VRB3      29.83F FOG              
6HR MIN TEMP:  69; 6HR MAX TEMP:  70; 6HR PCP:  0.18;                

MANCHESTER     NOT AVBL                                               
CONCORD        LGT RAIN  72  71  97 S9        29.83F FOG              
6HR MIN TEMP:  71; 6HR MAX TEMP:  73; 6HR PCP:  0.57;                

LACONIA        FAIR      73  70  90 S8        29.83F                  
PLYMOUTH       CLOUDY    69  67  95 CALM      29.82F FOG              
BERLIN         CLOUDY    67  66  97 N3        29.84F                  
6HR MIN TEMP:  66; 6HR MAX TEMP:  71; 6HR PCP:  0.06;                

WHITEFIELD     CLOUDY    68  67  96 CALM      29.83F                  
6HR MIN TEMP:  67; 6HR MAX TEMP:  72; 6HR PCP:  0.02;                

JAFFREY        NOT AVBL                                               
LEBANON        LGT RAIN  74  70  87 S9        29.82F                  
6HR MIN TEMP:  73; 6HR MAX TEMP:  75; 6HR PCP:  0.54;                

MT WASHINGTON  NOT AVBL                                               
$$

VTZ005-007-008-180700-
VERMONT
  
CITY           SKY/WX    TMP DP  RH WIND       PRES   REMARKS
ST JOHNSBURY     N/A     70  70 100 MISG      29.79F                  
MONTPELIER     CLOUDY    71  70  96 S8        29.86F                  
BURLINGTON     LGT RAIN  73  70  90 SW5       29.79F                  
$$

MAZ007-012-024-CTZ003-RIZ002-NYZ038-NYZ072-180700-
SOUTHERN NEW ENGLAND AND NY
  
CITY           SKY/WX    TMP DP  RH WIND       PRES   REMARKS
BOSTON         LGT RAIN  77  73  87 SW9       29.86F                  
WORCESTER      LGT RAIN  70  70 100 SW13      29.90F                  
NANTUCKET      FOG       71  71 100 S12       29.94F VSB 1/2          
PROVIDENCE     FAIR      77  74  90 SW6       29.90F                  
HARTFORD       CLOUDY    73  71  93 S12       29.88F                  
ALBANY         CLOUDY    74  71  91 S10       29.85F                  
NEW YORK CITY  MOCLDY    76  72  87 S7        29.90F                  
$$

ANZ081-ANZ082-ANZ150-NHZ014-MEZ023>029-180700-
COASTAL MARINE OBSERVATIONS
  
STATION/POSITION TIME  TEMP    WIND        PRES    WAVE
                       AIR SEA DIR/SP/G            HT/PER
                 (UTC) (F)     (DEG/KT/KT) (MB)    (FT/S)
MOUNT DESERT ROC 0500   64     160/ 18/ 19 1012.1F
MATINICUS ROCK   0500   65     180/ 19/ 20 1011.4F
ISLE OF SHOALS   0500   75     210/ 18/ 19 1011.3F
JEFFREYS LEDGE   0536      68                N/A     3/ 4
CASHES LEDGE BUO 0550   71 70              1011.6F   3/ 5
$$

.............KEY..............
   WCI - WIND CHILL
   TC  - TEMPERATURE IN CELSIUS
   VSB - VISIBILITY IN MILES
   HX  - HEAT INDEX
   FAIR- INDICATES FEW OR NO CLOUDS BELOW 12,000 FT, WITH NO 
         SIGNIFICANT WEATHER AND/OR OBSTRUCTIONS TO VISIBILITY.


  


000
ASUS41 KGYX 180605
RWRGYX
WEATHER ROUNDUP FOR MAINE AND NEW HAMPSHIRE
NATIONAL WEATHER SERVICE GRAY ME
200 AM EDT SAT AUG 18 2018

MEZ002-005-006-010-012-015-018-020-021-024-026-027-029-180700-
MAINE
  
CITY           SKY/WX    TMP DP  RH WIND       PRES   REMARKS
PORTLAND       FAIR      72  72 100 S7        29.83F FOG              
6HR MIN TEMP:  69; 6HR MAX TEMP:  72; 6HR PCP:  0.36;                

SANFORD        FAIR      69  69 100 VRB3      29.83F FOG              
BAR HARBOR     FOG       68  68 100 S8        29.86F VSB 3/4          
WISCASSET      LGT RAIN  69  69 100 S3        29.84F FOG              
6HR MIN TEMP:  69; 6HR MAX TEMP:  70; 6HR PCP:  0.08;                

ROCKLAND       MOCLDY    69  69 100 SW5       29.84F FOG              
FRYEBURG       FAIR      69  68  96 NW3       29.82F                  
6HR MIN TEMP:  67; 6HR MAX TEMP:  71; 6HR PCP:  0.46;                

AUGUSTA        LGT RAIN  69  69 100 S6        29.82F FOG              
6HR MIN TEMP:  68; 6HR MAX TEMP:  69; 6HR PCP:  0.45;                

WATERVILLE     LGT RAIN  68  67  96 CALM      29.79F FOG              
BANGOR         CLOUDY    69  67  93 S7        29.84F                  
6HR MIN TEMP:  67; 6HR MAX TEMP:  69; 6HR PCP:  0.03;                

GREENVILLE       N/A     61  61 100 VRB6      29.82F                  
6HR MIN TEMP:  60; 6HR MAX TEMP:  64; 6HR PCP:  0.50;                

MILLINOCKET    RAIN      63  61  93 SE3       29.85F FOG              
6HR MIN TEMP:  62; 6HR MAX TEMP:  68; 6HR PCP:  0.24;                

HOULTON        RAIN      61  61 100 SE6       29.86F FOG              
6HR MIN TEMP:  61; 6HR MAX TEMP:  67; 6HR PCP:  0.62;                

PRESQUE ISLE   LGT RAIN  62  61  96 E6        29.89F FOG              
6HR MIN TEMP:  62; 6HR MAX TEMP:  68; 6HR PCP:  0.37;                

FRENCHVILLE    LGT RAIN  61  56  83 N9        29.90F                  
6HR MIN TEMP:  61; 6HR MAX TEMP:  70; 6HR PCP:  0.14;                

CARIBOU        LGT RAIN  64  61  90 NE5       29.88F FOG              
6HR MIN TEMP:  64; 6HR MAX TEMP:  70; 6HR PCP:  0.25;                

$$

NHZ002-005-008-009-011-012-014-180700-
NEW HAMPSHIRE
  
CITY           SKY/WX    TMP DP  RH WIND       PRES   REMARKS
PORTSMOUTH     LGT RAIN  73  71  94 SW5       29.82F FOG              
ROCHESTER      CLOUDY    70  70 100 VRB3      29.83F FOG              
6HR MIN TEMP:  69; 6HR MAX TEMP:  70; 6HR PCP:  0.18;                

MANCHESTER     NOT AVBL                                               
CONCORD        LGT RAIN  72  71  97 S9        29.83F FOG              
6HR MIN TEMP:  71; 6HR MAX TEMP:  73; 6HR PCP:  0.57;                

LACONIA        FAIR      73  70  90 S8        29.83F                  
PLYMOUTH       CLOUDY    69  67  95 CALM      29.82F FOG              
BERLIN         CLOUDY    67  66  97 N3        29.84F                  
6HR MIN TEMP:  66; 6HR MAX TEMP:  71; 6HR PCP:  0.06;                

WHITEFIELD     CLOUDY    68  67  96 CALM      29.83F                  
6HR MIN TEMP:  67; 6HR MAX TEMP:  72; 6HR PCP:  0.02;                

JAFFREY        NOT AVBL                                               
LEBANON        LGT RAIN  74  70  87 S9        29.82F                  
6HR MIN TEMP:  73; 6HR MAX TEMP:  75; 6HR PCP:  0.54;                

MT WASHINGTON  NOT AVBL                                               
$$

VTZ005-007-008-180700-
VERMONT
  
CITY           SKY/WX    TMP DP  RH WIND       PRES   REMARKS
ST JOHNSBURY     N/A     70  70 100 MISG      29.79F                  
MONTPELIER     CLOUDY    71  70  96 S8        29.86F                  
BURLINGTON     LGT RAIN  73  70  90 SW5       29.79F                  
$$

MAZ007-012-024-CTZ003-RIZ002-NYZ038-NYZ072-180700-
SOUTHERN NEW ENGLAND AND NY
  
CITY           SKY/WX    TMP DP  RH WIND       PRES   REMARKS
BOSTON         LGT RAIN  77  73  87 SW9       29.86F                  
WORCESTER      LGT RAIN  70  70 100 SW13      29.90F                  
NANTUCKET      FOG       71  71 100 S12       29.94F VSB 1/2          
PROVIDENCE     FAIR      77  74  90 SW6       29.90F                  
HARTFORD       CLOUDY    73  71  93 S12       29.88F                  
ALBANY         CLOUDY    74  71  91 S10       29.85F                  
NEW YORK CITY  MOCLDY    76  72  87 S7        29.90F                  
$$

ANZ081-ANZ082-ANZ150-NHZ014-MEZ023>029-180700-
COASTAL MARINE OBSERVATIONS
  
STATION/POSITION TIME  TEMP    WIND        PRES    WAVE
                       AIR SEA DIR/SP/G            HT/PER
                 (UTC) (F)     (DEG/KT/KT) (MB)    (FT/S)
MOUNT DESERT ROC 0500   64     160/ 18/ 19 1012.1F
MATINICUS ROCK   0500   65     180/ 19/ 20 1011.4F
ISLE OF SHOALS   0500   75     210/ 18/ 19 1011.3F
JEFFREYS LEDGE   0536      68                N/A     3/ 4
CASHES LEDGE BUO 0550   71 70              1011.6F   3/ 5
$$

.............KEY..............
   WCI - WIND CHILL
   TC  - TEMPERATURE IN CELSIUS
   VSB - VISIBILITY IN MILES
   HX  - HEAT INDEX
   FAIR- INDICATES FEW OR NO CLOUDS BELOW 12,000 FT, WITH NO 
         SIGNIFICANT WEATHER AND/OR OBSTRUCTIONS TO VISIBILITY.